User: anonymous   Login
Location: Franzen
(48.6167°N, 15.3833°E)
Time: 07:14:21
(UTC+00:00)
Language:

deb Atmosphere 2 - Orbit

View from above orbital plane
View from above orbital plane
View from above satellite
View from above satellite

Ground track
Ground track

The orbit data is extracted from the following two-line orbital elements,

1 20798U 90081H   21300.53887270  .00000379  00000-0  20837-3 0  9992
2 20798  98.6254 293.8231 0009742 140.2375 219.9516 14.17361301604420
Epoch (UTC): 27 October 2021 12:55:58
Eccentricity: 0.0009742
inclination: 98.6254°
perigee height: 827 km
apogee height: 841 km
right ascension of ascending node: 293.8231°
argument of perigee: 140.2375°
revolutions per day: 14.17361301
mean anomaly at epoch: 219.9516°
orbit number at epoch: 60442

The dashed part of the orbit path shows where the satellite is in the earth's shadow,  

DLR